This demonstration page uses our WeatherBlox Daily Observations layout. Learn more.

Left ArrowRight Arrow

30.21309, -93.2044

Hourly Observations for July 21, 2019

Temp ( °F °C ) Dew Point ( °F °C ) Humidity (%) Winds ( mph kmh ) Pressure ( in mb ) Visibility ( mi km ) Precip ( " mm )
12:15 am 00:15 Clear 78 25.6 76 24.7 95 95 SE 7 11 29.97 1015 10 16 0.00 0.00
12:35 am 00:35 Clear 78 25.5 76 24.7 95 95 SE 6 9 29.97 1015 10 16 0.00 0.00
12:55 am 00:55 Clear 78 25.6 76 24.7 95 95 ESE 6 9 29.97 1015 10 16 0.00 0.00
1:15 am 01:15 Clear 78 25.7 76 24.6 94 94 ESE 7 11 29.97 1015 10 16 0.00 0.00
1:35 am 01:35 Clear 78 25.5 76 24.5 94 94 ESE 7 11 29.97 1015 10 16 0.00 0.00
1:55 am 01:55 Clear 77 25.2 76 24.5 96 96 ESE 3 6 29.97 1015 10 16 0.00 0.00
2:15 am 02:15 Clear 78 25.5 76 24.6 95 95 SE 3 6 29.97 1015 10 16 0.00 0.00
2:35 am 02:35 Clear 78 25.5 77 24.8 96 96 E 3 6 29.96 1015 10 16 0.00 0.00
2:55 am 02:55 Clear 78 25.5 76 24.7 95 95 E 3 6 29.97 1015 10 16 0.00 0.00
3:15 am 03:15 Partly Cloudy 78 25.6 77 24.9 96 96 Calm 29.97 1015 10 16 0.00 0.00
3:35 am 03:35 Clear 78 25.8 77 24.9 95 95 E 5 7 29.98 1015 10 16 0.00 0.00
3:55 am 03:55 Clear 78 25.7 77 25 96 96 E 5 7 29.97 1015 10 16 0.00 0.00
4:15 am 04:15 Clear 78 25.5 77 24.8 96 96 Calm 29.97 1015 10 16 0.00 0.00
4:35 am 04:35 Clear 78 25.5 77 24.8 96 96 Calm 29.97 1015 10 16 0.00 0.00
4:55 am 04:55 Clear 78 25.5 76 24.7 95 95 Calm 29.98 1015 10 16 0.00 0.00
5:15 am 05:15 Clear 78 25.7 77 24.8 95 95 E 3 6 29.97 1015 10 16 0.00 0.00
5:35 am 05:35 Clear 78 25.5 77 24.8 96 96 Calm 29.97 1015 10 16 0.00 0.00
6:00 am 06:00 Mostly Clear with Thunderstorms 77 25 77 25 100 100 Calm 29.99 1016 10 16 0.00 0.00
6:55 am 06:55 Mostly Cloudy with Thunderstorms 73 23 70 21 89 89 ESE 12 19 29.99 1016 10 16 0.00 0.00
7:45 am 07:45 Mostly Cloudy with Thunderstorms 77 25 73 23 89 89 WNW 12 19 30.02 1017 7 11 0.00 0.00
8:55 am 08:55 Mostly Cloudy 81 27 73 23 79 79 N 7 11 30.01 1016 7 11 0.00 0.00
9:55 am 09:55 Mostly Cloudy 86 30 72 22 62 62 SW 3 6 30.01 1016 10 16 0.00 0.00
10:52 am 10:52 Partly Cloudy 88 31 73 23 62 62 SSE 6 9 30.01 1016 10 16 0.00 0.00
11:55 am 11:55 Partly Cloudy 88 31 73 23 62 62 Calm 30.01 1016 7 11 0.00 0.00
12:55 pm 12:55 Mostly Cloudy 77 25 72 22 83 83 SSE 9 15 30.03 1017 10 16 0.00 0.00
1:55 pm 13:55 Partly Cloudy 82 28 73 23 74 74 SSW 12 19 30.01 1016 10 16 0.00 0.00
2:55 pm 14:55 Partly Cloudy 86 30 73 23 66 66 SW 10 17 29.99 1016 10 16 0.00 0.00
3:55 pm 15:55 Partly Cloudy 86 30 73 23 66 66 W 8 13 29.98 1015 10 16 0.00 0.00
4:50 pm 16:50 Partly Cloudy 84 29 73 23 70 70 Calm 29.99 1016 10 16 0.00 0.00
5:50 pm 17:50 Mostly Sunny 82 28 75 24 79 79 NNE 8 13 29.97 1015 10 16 0.00 0.00
6:55 pm 18:55 Mostly Sunny 79 26 72 22 79 79 ENE 3 6 29.97 1015 10 16 0.00 0.00
7:50 pm 19:50 Mostly Sunny 77 25 73 23 89 89 Calm 29.97 1015 10 16 0.00 0.00
8:50 pm 20:50 Partly Cloudy 77 25 73 23 89 89 SE 5 7 29.97 1015 10 16 0.00 0.00
9:50 pm 21:50 Mostly Clear 77 25 73 23 89 89 Calm 29.97 1015 10 16 0.00 0.00
10:15 pm 22:15 Clear 76 24.6 74 23.3 93 93 Calm 29.98 1015 10 16 0.00 0.00
10:35 pm 22:35 Clear 76 24.7 74 23.2 91 91 Calm 29.98 1015 10 16 0.00 0.00
10:55 pm 22:55 Clear 76 24.4 74 23.2 93 93 ESE 3 6 29.98 1015 10 16 0.00 0.00
11:15 pm 23:15 Clear 76 24.2 74 23.5 96 96 ESE 3 6 29.98 1015 10 16 0.00 0.00
11:35 pm 23:35 Clear 76 24.2 74 23.2 94 94 ESE 3 6 29.97 1015 10 16 0.00 0.00
11:55 pm 23:55 Clear 76 24.3 74 23.2 94 94 Calm 29.97 1015 10 16 0.00 0.00

Powered by AerisWeather